Skip Page Navigation
NASA JPL Caltech
NASA Logo - Jet Propulsion Laboratory + View the NASA Portal
+ Center for Near-Earth Object Studies
JPL Home Earth Solar System Stars & Galaxies Technology
JPL Solar System Dynamics
BODIES ORBITS EPHEMERIDES TOOLS PHYSICAL DATA DISCOVERY FAQ SITE MAP
IMPORTANT: The SSD Announcement email list is now available. Major changes are coming in the near future, including possible hostname and/or URL changes. To be notified of such changes, subscribe to this email list.

Please visit this page for more details.


JPL Small-Body Database Browser
Search: [ help ]  
185093 (2006 RV104)
Classification: Main-belt Asteroid          SPK-ID: 2185093
Ephemeris | Orbit Diagram | Orbital Elements | Mission Design | Physical Parameters | Discovery Circumstances ]

[ show orbit diagram ]
Orbital Elements at Epoch 2459000.5 (2020-May-31.0) TDB
Reference: JPL 12 (heliocentric ecliptic J2000)
 Element Value Uncertainty (1-sigma)   Units 
e .0801740982721251 5.9926e-08  
a 2.281121125439953 1.7922e-08 au
q 2.09823429615831 1.3823e-07 au
i 7.298433587838633 9.6699e-06 deg
node 11.57557879685641 4.9318e-05 deg
peri 55.50262762970222 7.7554e-05 deg
M 303.6753964053987 6.1509e-05 deg
tp 2459197.386795168703
(2020-Dec-13.88679517)
0.00021575 TDB
period 1258.406482021418
3.45
1.483e-05
4.06e-08
d
yr
n .2860760852262305 3.3713e-09 deg/d
Q 2.464007954721597 1.9358e-08 au
  Orbit Determination Parameters
   # obs. used (total)      190  
   data-arc span      6724 days (18.41 yr)  
   first obs. used      1999-10-16  
   last obs. used      2018-03-14  
   planetary ephem.      DE431  
   SB-pert. ephem.      SB431-N16  
   condition code      0  
   norm. resid. RMS      .57496  
   source      ORB  
   producer      Otto Matic  
   solution date      2019-Jul-14 09:26:43  

Additional Information
 Earth MOID = 1.12044 au 
 Jupiter MOID = 2.7335 au 
 T_jup = 3.590 
[ show covariance matrix ]

Ephemeris | Orbit Diagram | Orbital Elements | Mission Design | Physical Parameters | Discovery Circumstances ]

Physical Parameter Table
Parameter Symbol Value Units Sigma Reference Notes
absolute magnitude H 17.4   n/a MPO436914  

185093 (2006 RV104)          Discovered 2006-Sep-14 by Spacewatch at Kitt Peak
Reference: 20080420/Numbers.arcLast Updated: 2008-04-23
Ephemeris | Orbit Diagram | Orbital Elements | Mission Design | Physical Parameters | Discovery Circumstances ]
ABOUT SSD CREDITS/AWARDS PRIVACY/COPYRIGHT GLOSSARY LINKS
FirstGov 2020-Feb-24 00:40 UT
(server date/time)  
NASA Home Page
Site Manager:   Ryan S. Park
Webmaster  Alan B. Chamberlin